Tracking 32412 objects as of 6-Dec-2025
HD Live streaming from Space Station
objects crossing your sky now

EXPRESS 2

Track EXPRESS 2 now!
EXPRESS 2 is classified as:


NORAD ID: 24435
Int'l Code: 1996-058A
Perigee: 35,740.9 km
Apogee: 35,817.9 km
Inclination: 14.6 °
Period: 1,435.4 minutes
Semi major axis: 42150 km
RCS: 10 m2 (large)
Launch date: September 26, 1996
Source: Commonwealth of Independent States (former USSR) (CIS)
Launch site: TYURATAM MISSILE AND SPACE COMPLEX (TTMTR)
Your satellite tracking list
Your tracking list is empty




NASA's NSSDC Master Catalog

Two Line Element Set (TLE):
1 24435U 96058A   25340.15302595  .00000017  00000-0  00000-0 0  9998
2 24435  14.5878 355.8289 0009129 340.3240 213.2524  1.00323055106870
Source of the keplerian elements: AFSPC